Weather in Prince George

Canada     53°55′04″N   122°45′06″W
temp.,
°C
wind,
m/s
gust,
m/s
humid.,
%
clouds,
%
prec.,
mm/h
press.,
hPa
HPBL,
m
7 august, sun
sun723:00+14ssw11810 0.0 101511
02:00+12ssw12880 0.0 101714
05:00+10sse11930 0.0 101813
08:00+15s24710 0.0 1017226
11:00+23ssw46420 0.0 10151535
14:00+25sw493398 0.0 10122851
17:00+28w59262 0.0 10092968
20:00+22wnw410415 0.0 1010397
8 august, mon
mon823:00+14wsw22645 0.0 101324
02:00+12sw22751 0.0 101528
05:00+9wsw11880 0.0 101711
08:00+14wsw12640 0.0 1018241
11:00+21wsw11370 0.0 10171198
14:00+24ssw12270 0.0 10151804
17:00+25sse12230 0.0 10141958
20:00+18ese22480 0.0 101420
9 august, tue
tue923:00+13ne11540 0.0 101510
02:00+10ne11640 0.0 101510
05:00+8ne11710 0.0 101711
08:00+13ne12540 0.0 1016187
11:00+22ne22330 0.0 1015588
14:00+27ene11250 0.0 10131265
17:00+28nne11270 0.0 10121604
20:00+21ne11520 0.0 101211
10 august, wed
wed1023:00+16ene11590 0.0 101311
02:00+14ene11700 0.0 101411
05:00+12ne11800 0.0 101510
08:00+16ne11630 0.0 1015160
11:00+25ene01410 0.0 1013540
14:00+30wsw01303 0.0 1011990
17:00+31w122782 0.0 10091322
20:00+24ene11501 0.0 100911
11 august, thu
thu1123:00+18n11580 0.0 101011
02:00+16s0065100 0.0 101111
05:00+15s2374100 0.0 101361
08:00+16nne118796 0.4 101426
11:00+23ene11610 0.8 1014589
14:00+28nne114511 0.0 10111567
17:00+28n224030 0.0 10091956
20:00+16wsw4997100 4.7 1014450